{"data":{"norad_id":53272,"intl_designator":"2022-086AG","name":"STARLINK-4122","alt_names":[],"object_type":"PAYLOAD","status":"ACTIVE","operator":null,"country":"US","launch_date":"2022-07-24","launch_site_code":"AFETR","launch_vehicle":null,"mission":null,"orbit_class":"UNKNOWN","rcs_meters":null,"size_class":null,"mass_kg":null,"dimensions":null,"purposes":["comms"],"wikipedia_slug":null,"has_3d_model":false,"image_url":null,"decayed_at":null,"tle_current":{"epoch":"2026-05-25T03:43:35.290848Z","epoch_age_seconds":61382,"freshness":"FRESH","line1":"1 53272U 22086AG  26145.15526957 -.00000386  00000+0 -61604-5 0  9995","line2":"2 53272  53.2149 200.8525 0001071  82.7614 277.3500 15.08836671212749","mean_motion":15.08836671,"eccentricity":0.0001071,"inclination_deg":53.2149,"raan_deg":200.8525,"arg_perigee_deg":82.7614,"mean_anomaly_deg":277.35,"bstar":-6.1604e-6,"rev_number":21274,"period_min":95.437765245036,"perigee_km":539.01265832458,"apogee_km":540.49447048347,"semimajor_km":6917.890564404,"source":"CELESTRAK","updated_at":"2026-05-25T13:38:17.366027Z"}}}